Regional Weather Roundup
Issued by NWS

Home | Current Version | Previous Version | Graphics & Text | Print | Product List | Glossary Off
Versions: 1 2 3 4 5 6 7 8 9 10 11 12 13 14 15 16 17 18 19 20 21 22 23 24 25 26 27 28 29 30 31 32 33 34 35 36 37 38 39 40 41 42 43 44 45 46 47 48 49 50

000
ASUS43 KDMX 211601
RWRIA

WEATHER ROUNDUP FOR IOWA
NATIONAL WEATHER SERVICE DES MOINES IA
1000 AM CST SUN JAN 21 2018

NOTE: "FAIR" INDICATES FEW OR NO CLOUDS BELOW 12,000 FEET WITH NO
SIGNIFICANT WEATHER AND/OR OBSTRUCTIONS TO VISIBILITY.

* - THESE STATIONS ARE NOT NWS STATIONS...THUS NOT UNDER NWS
QUALITY CONTROL.  THEY ALSO DO NOT REPORT WEATHER SUCH
AS PRECIPITATION OR FOG.

IAZ001>003-012>014-020>022-031>034-043>046-211700-
   NORTHWEST IOWA

CITY           SKY/WX    TMP DP  RH WIND       PRES   REMARKS
CARROLL *      CLOUDY    36  36 100 NE8       29.85S FOG     WCI  29
CHEROKEE *     PTSUNNY   35  32  90 N5        29.89R WCI  31
DENISON *      CLOUDY    36  34  93 NE12      29.85S WCI  27
LE MARS *      CLOUDY    32  30  93 N7        29.90F WCI  26
ORANGE CITY *  CLOUDY    36  32  87 E7        29.90R WCI  30
SHELDON *      CLOUDY    34  30  86 NE10      29.90R WCI  26
SIOUX CITY     CLOUDY    35  30  82 NE7       29.88S WCI  29
SPENCER        CLOUDY    36  31  82 E10       29.91R WCI  28
STORM LAKE *   CLOUDY    32  32 100 NE12      29.87S WCI  23
$$

IAZ055>058-069>071-079>083-090>094-211700-
   SOUTHWEST IOWA

CITY           SKY/WX    TMP DP  RH WIND       PRES   REMARKS
ATLANTIC *     FOG       39  39 100 NE7       29.82R VSB 1/2 WCI  34
AUDUBON *      FOG       37  36  93 NE7       29.84S VSB 1   WCI  32
CLARINDA *     CLOUDY    41  41 100 NE6         N/A  FOG
COUNCIL BLFS * CLOUDY    39  39 100 NE8       29.79F FOG     WCI  34
CRESTON *      FOG       39  37  93 NE10      29.81F VSB 1/4 WCI  32
HARLAN  *      CLOUDY    37  37 100 N10       29.85S FOG     WCI  30
LAMONI         FOG       45  44  97 E5        29.80S VSB 1/4
RED OAK *      MIX PCPN  41  41 100 NE9       29.80R
SHENANDOAH *   CLOUDY    41  41 100 NE9       29.79S FOG
$$

IAZ047>049-059>061-072>074-084-211700-
   CENTRAL IOWA

CITY           SKY/WX    TMP DP  RH WIND       PRES   REMARKS
AMES           CLOUDY    38  38 100 NE3       29.87R FOG
ANKENY *       CLOUDY    39  37  93 E7        29.87S FOG     WCI  34
BOONE *        FOG       37  37 100 NE10      29.85S VSB 1/2 WCI  30
CHARITON *     FOG       41  41 100 E6        29.82F VSB 1/4
DES MOINES     CLOUDY    41  38  89 E7        29.85F FOG
GRINNELL*      CLOUDY    38  37  97 E9        29.88S FOG     WCI  32
KNOXVILLE *    FOG       39  39 100 E7        29.84S VSB 1/4 WCI  34
MARSHALLTOWN   FOG       37  37 100 NE6       29.88S VSB 1   WCI  32
NEWTON *       CLOUDY    39  39 100 NE8       29.86F FOG     WCI  34
PELLA *        DRZL/FOG  40  38  95 E5        29.87F VSB 1
$$

IAZ004>006-015-016-023>025-035-036-211700-
   NORTH CENTRAL IOWA

CITY           SKY/WX    TMP DP  RH WIND       PRES   REMARKS
ALGONA *       CLOUDY    34 N/A N/A NE12      29.89F WCI  25
CLARION *      CLOUDY    32  32 100 NE13      29.90S FOG     WCI  22
ESTHERVILLE    CLOUDY    32  30  92 NE13      29.91R WCI  22
FORT DODGE *   CLOUDY    33  32  96 NE6       29.89S FOG     WCI  28
MASON CITY     CLOUDY    33  31  92 NE13      29.92F FOG     WCI  24
FOREST CITY *    N/A     34  32  93 NE7       29.91F WCI  28
WEBSTER CITY * CLOUDY    37  37 100 E10       29.86S FOG     WCI  30
IOWA FALLS *   FOG       35  34  97 NE6       29.90F VSB 1/2 WCI  30
$$

IAZ007>011-017>019-026>030-037>042-050>054-066-211700-
   NORTHEAST IOWA

CITY           SKY/WX    TMP DP  RH WIND       PRES   REMARKS
CEDAR RAPIDS   CLOUDY    41  38  89 E9        29.89S FOG
CHARLES CITY *   N/A     32  32 100 NE7       29.92S FOG     WCI  26
CLINTON *      CLOUDY    40  38  93 E9        29.93F WCI  34
DECORAH *      FOG       28  28 100 CALM      29.93S VSB<1/4
DUBUQUE        CLOUDY    35  33  92 NE5       29.93S FOG     WCI  31
MONTICELLO *   CLOUDY    37  37 100 NE6       29.91F FOG     WCI  33
OELWEIN *      FOG       36  36 100 E10       29.92S VSB 3/4 WCI  28
WATERLOO       CLOUDY    36  35  96 NE6       29.90F FOG     WCI  31
$$

IAZ064-065-067-068-078-211700-
   EAST CENTRAL IOWA

CITY           SKY/WX    TMP DP  RH WIND       PRES   REMARKS
DAVENPORT      CLOUDY    43  38  82 SE8       29.94S
IOWA CITY      CLOUDY    43  37  79 E3        29.92S
MT. PLEASANT * CLOUDY    43  41  93 E5        29.89F
MUSCATINE *    CLOUDY    41  39  93 CALM      29.92S FOG
QUAD CITIES    CLOUDY    43  39  86 E5        29.92S
$$

IAZ062-063-075>077-085>089-095>099-211700-
   SOUTHEAST IOWA

CITY           SKY/WX    TMP DP  RH WIND       PRES   REMARKS
BURLINGTON     CLOUDY    44  40  85 SE5       29.89F
FAIRFIELD *    PTSUNNY   43  41  93 SE9       29.87F
FORT MADISON * CLOUDY    45  43  93 SE5       29.90F
KEOKUK *       CLOUDY    43  41  93 E5        29.88F
OSKALOOSA *    DRIZZLE   40  39  95 E7        29.86F
OTTUMWA        CLOUDY    43  40  89 E8        29.86S
WASHINGTON *   FOG       41  41 100 SE8       29.89F VSB 3/4
$$

ABBREVIATIONS USED IN REMARKS
   TC - TEMPERATURES IN CELSIUS
  WCI - WIND CHILL INDEX
   HX - HEAT INDEX
  VSB - VISIBILITY
$$





USA.gov is the U.S. government's official web portal to all federal, state and local government web resources and services.